When you browse on this site, cookies collect data to enhance your experience and personalize the content and advertising you see.
Visit our Privacy Policy to learn more. By continuing to use the site, you agree to this use of cookies and data.
  • In Romania
  • List of Countries
  • For 7 days
  • Water Temperature
  • Satellite Maps
  • Weather Map
  • Weather Widgets
  • user-avatar
    Login

    Hourly Weather La Rioja

    Today, 22 January, Tuesday

    Time Temperature Precipitation Wind Pressure Humidity
    00:00 +29°C° 0 mm 1 mps 713 mmHg 53%
    01:00 +29°C° 0 mm 1 mps 713 mmHg 57%
    02:00 +28°C° 0 mm 1 mps 713 mmHg 60%
    03:00 +28°C° 0 mm 1 mps 712 mmHg 64%
    04:00 +25°C° 0 mm 0 mps 712 mmHg 67%
    05:00 +25°C° 0 mm 0 mps 712 mmHg 71%
    06:00 +28°C° 0 mm 1 mps 712 mmHg 67%
    07:00 +29°C° 0 mm 1 mps 712 mmHg 63%
    08:00 +30°C° 0 mm 1 mps 712 mmHg 59%
    09:00 +31°C° 0 mm 2 mps 712 mmHg 55%
    10:00 +34°C° 0 mm 2 mps 712 mmHg 51%
    11:00 +35°C° 0 mm 3 mps 712 mmHg 46%
    12:00 +36°C° 0 mm 3 mps 711 mmHg 43%
    13:00 +37°C° 0 mm 3 mps 711 mmHg 40%
    14:00 +39°C° 0 mm 3 mps 710 mmHg 37%
    15:00 +39°C° 0 mm 3 mps 710 mmHg 36%
    16:00 +39°C° 0 mm 3 mps 709 mmHg 35%
    17:00 +40°C° 0 mm 2 mps 709 mmHg 33%
    18:00 +39°C° 0 mm 2 mps 710 mmHg 35%
    19:00 +38°C° 0 mm 2 mps 710 mmHg 37%
    20:00 +37°C° 0 mm 2 mps 711 mmHg 39%
    21:00 +36°C° 0.4 mm 2 mps 711 mmHg 43%
    22:00 +34°C° 0.4 mm 1 mps 712 mmHg 47%
    23:00 +33°C° 0.4 mm 1 mps 713 mmHg 51%

    Tomorrow, 23 January, Wednesday

    Time Temperature Precipitation Wind Pressure Humidity
    00:00 +32°C° 0.1 mm 1 mps 713 mmHg 51%
    01:00 +32°C° 0.1 mm 2 mps 713 mmHg 52%
    02:00 +32°C° 0.1 mm 2 mps 713 mmHg 52%
    03:00 +31°C° 0.2 mm 2 mps 713 mmHg 52%
    04:00 +31°C° 0.2 mm 2 mps 712 mmHg 52%
    05:00 +31°C° 0.2 mm 2 mps 712 mmHg 51%
    06:00 +32°C° 0.2 mm 2 mps 713 mmHg 48%
    07:00 +34°C° 0.2 mm 2 mps 714 mmHg 45%
    08:00 +35°C° 0.2 mm 3 mps 714 mmHg 41%
    09:00 +36°C° 0 mm 3 mps 714 mmHg 40%
    10:00 +37°C° 0 mm 3 mps 714 mmHg 38%
    11:00 +38°C° 0 mm 3 mps 714 mmHg 36%
    12:00 +39°C° 0 mm 3 mps 714 mmHg 35%
    13:00 +40°C° 0 mm 3 mps 713 mmHg 35%
    14:00 +40°C° 0 mm 3 mps 712 mmHg 34%
    15:00 +40°C° 0 mm 3 mps 711 mmHg 33%
    16:00 +42°C° 0 mm 3 mps 711 mmHg 32%
    17:00 +42°C° 0 mm 3 mps 710 mmHg 32%
    18:00 +40°C° 0 mm 3 mps 711 mmHg 34%
    19:00 +39°C° 0 mm 2 mps 711 mmHg 36%
    20:00 +38°C° 0 mm 2 mps 712 mmHg 39%
    21:00 +36°C° 0.3 mm 2 mps 712 mmHg 42%
    22:00 +35°C° 0.3 mm 2 mps 712 mmHg 45%
    23:00 +34°C° 0.3 mm 2 mps 713 mmHg 48%

    Day after tomorrow, 24 January, Thursday

    Time Temperature Precipitation Wind Pressure Humidity
    00:00 +34°C° 0.3 mm 2 mps 713 mmHg 48%
    01:00 +32°C° 0.3 mm 2 mps 712 mmHg 48%
    02:00 +32°C° 0.3 mm 2 mps 712 mmHg 48%
    03:00 +32°C° 0 mm 2 mps 712 mmHg 48%
    04:00 +31°C° 0 mm 1 mps 712 mmHg 49%
    05:00 +31°C° 0 mm 1 mps 712 mmHg 49%
    06:00 +32°C° 0 mm 1 mps 712 mmHg 48%
    07:00 +32°C° 0 mm 1 mps 712 mmHg 46%
    08:00 +33°C° 0 mm 1 mps 713 mmHg 45%
    09:00 +34°C° 0 mm 1 mps 713 mmHg 42%
    10:00 +36°C° 0 mm 2 mps 712 mmHg 40%
    11:00 +38°C° 0 mm 2 mps 712 mmHg 37%
    12:00 +39°C° 0 mm 2 mps 711 mmHg 35%
    13:00 +40°C° 0 mm 3 mps 710 mmHg 33%
    14:00 +42°C° 0 mm 4 mps 710 mmHg 31%
    15:00 +42°C° 0 mm 4 mps 709 mmHg 30%
    16:00 +42°C° 0 mm 4 mps 709 mmHg 30%
    17:00 +42°C° 0 mm 4 mps 708 mmHg 29%
    18:00 +40°C° 0 mm 3 mps 709 mmHg 32%
    19:00 +38°C° 0 mm 3 mps 709 mmHg 35%
    20:00 +37°C° 0 mm 2 mps 709 mmHg 39%
    21:00 +36°C° 0 mm 2 mps 710 mmHg 40%
    22:00 +36°C° 0 mm 2 mps 710 mmHg 41%
    23:00 +34°C° 0 mm 1 mps 711 mmHg 42%

    25 January, Friday

    Time Temperature Precipitation Wind Pressure Humidity
    00:00 +33°C° 0 mm 1 mps 710 mmHg 42%
    01:00 +33°C° 0 mm 1 mps 710 mmHg 42%
    02:00 +32°C° 0 mm 1 mps 709 mmHg 42%
    03:00 +32°C° 0 mm 1 mps 709 mmHg 44%
    04:00 +31°C° 0 mm 1 mps 708 mmHg 45%
    05:00 +31°C° 0 mm 1 mps 708 mmHg 47%
    06:00 +32°C° 0 mm 1 mps 708 mmHg 43%
    07:00 +33°C° 0 mm 1 mps 709 mmHg 39%
    08:00 +33°C° 0 mm 0 mps 709 mmHg 35%
    09:00 +36°C° 0 mm 1 mps 710 mmHg 32%
    10:00 +39°C° 0 mm 1 mps 710 mmHg 29%
    11:00 +40°C° 0 mm 2 mps 710 mmHg 26%
    12:00 +41°C° 0 mm 2 mps 709 mmHg 25%
    13:00 +43°C° 0 mm 3 mps 709 mmHg 24%
    14:00 +44°C° 0 mm 3 mps 709 mmHg 23%
    15:00 +44°C° 0 mm 3 mps 708 mmHg 23%
    16:00 +44°C° 0 mm 3 mps 708 mmHg 23%
    17:00 +44°C° 0 mm 3 mps 708 mmHg 22%
    18:00 +43°C° 0.6 mm 3 mps 708 mmHg 26%
    19:00 +40°C° 0.6 mm 3 mps 709 mmHg 30%
    20:00 +38°C° 0.6 mm 3 mps 709 mmHg 33%
    21:00 +37°C° 0.7 mm 3 mps 710 mmHg 36%
    22:00 +36°C° 0.7 mm 3 mps 710 mmHg 38%
    23:00 +35°C° 0.7 mm 4 mps 711 mmHg 41%

    26 January, Saturday

    Time Temperature Precipitation Wind Pressure Humidity
    00:00 +35°C° 0.6 mm 4 mps 711 mmHg 42%
    01:00 +34°C° 0.6 mm 4 mps 710 mmHg 43%
    02:00 +34°C° 0.6 mm 4 mps 710 mmHg 44%
    03:00 +34°C° 0.3 mm 4 mps 710 mmHg 45%
    04:00 +33°C° 0.3 mm 4 mps 710 mmHg 46%
    05:00 +33°C° 0.3 mm 4 mps 710 mmHg 47%
    06:00 +34°C° 0.6 mm 3 mps 711 mmHg 45%
    07:00 +35°C° 0.6 mm 3 mps 712 mmHg 43%
    08:00 +36°C° 0.6 mm 3 mps 712 mmHg 41%
    09:00 +37°C° 0.6 mm 4 mps 713 mmHg 40%
    10:00 +39°C° 0.6 mm 5 mps 713 mmHg 39%
    11:00 +40°C° 0.6 mm 6 mps 713 mmHg 39%
    12:00 +40°C° 2.4 mm 6 mps 713 mmHg 40%
    13:00 +39°C° 2.4 mm 5 mps 713 mmHg 42%
    14:00 +39°C° 2.4 mm 5 mps 712 mmHg 44%
    15:00 +39°C° 2.6 mm 5 mps 712 mmHg 44%
    16:00 +39°C° 2.6 mm 5 mps 712 mmHg 44%
    17:00 +38°C° 2.6 mm 4 mps 711 mmHg 44%
    18:00 +36°C° 3.2 mm 4 mps 712 mmHg 48%
    19:00 +35°C° 3.2 mm 4 mps 712 mmHg 52%
    20:00 +34°C° 3.2 mm 3 mps 712 mmHg 56%
    21:00 +33°C° 1.6 mm 3 mps 712 mmHg 57%
    22:00 +32°C° 1.6 mm 2 mps 713 mmHg 58%
    23:00 +31°C° 1.6 mm 2 mps 713 mmHg 59%

    27 January, Sunday

    Time Temperature Precipitation Wind Pressure Humidity
    00:00 +30°C° 1.1 mm 2 mps 713 mmHg 60%
    01:00 +30°C° 1.1 mm 2 mps 712 mmHg 61%
    02:00 +29°C° 1.1 mm 2 mps 712 mmHg 62%
    03:00 +29°C° 0.2 mm 2 mps 712 mmHg 63%
    04:00 +29°C° 0.2 mm 1 mps 712 mmHg 63%
    05:00 +29°C° 0.2 mm 1 mps 712 mmHg 63%
    06:00 +30°C° 0.3 mm 1 mps 712 mmHg 59%
    07:00 +31°C° 0.3 mm 1 mps 712 mmHg 55%
    08:00 +31°C° 0.3 mm 1 mps 713 mmHg 51%
    09:00 +34°C° 0 mm 2 mps 712 mmHg 49%
    10:00 +35°C° 0 mm 2 mps 712 mmHg 46%
    11:00 +36°C° 0 mm 2 mps 712 mmHg 43%
    12:00 +37°C° 0 mm 2 mps 711 mmHg 42%
    13:00 +38°C° 0 mm 3 mps 710 mmHg 41%
    14:00 +39°C° 0 mm 3 mps 710 mmHg 39%
    15:00 +39°C° 0 mm 3 mps 709 mmHg 39%
    16:00 +39°C° 0 mm 3 mps 709 mmHg 39%
    17:00 +39°C° 0 mm 3 mps 708 mmHg 39%
    18:00 +38°C° 0.4 mm 3 mps 709 mmHg 42%
    19:00 +37°C° 0.4 mm 3 mps 709 mmHg 45%
    20:00 +36°C° 0.4 mm 2 mps 710 mmHg 48%
    21:00 +35°C° 0.9 mm 2 mps 711 mmHg 51%
    22:00 +33°C° 0.9 mm 1 mps 711 mmHg 54%
    23:00 +32°C° 0.9 mm 1 mps 712 mmHg 57%
    Show more